This demonstration page uses our WeatherBlox Daily Observations layout. Learn more.

Left ArrowRight Arrow

40.92945, -100.16068

Hourly Observations for February 15, 2019

Temp ( °F °C ) Dew Point ( °F °C ) Humidity (%) Winds ( mph kmh ) Pressure ( in mb ) Visibility ( mi km ) Precip ( " mm )
12:15 am 00:15 Cloudy 19 -7 7 -14 58 58 NE 13 20 30.16 1021 10 16 0.00 0.00
12:35 am 00:35 Mostly Cloudy 19 -7.3 6 -14.4 57 57 NNE 13 20 30.15 1021 10 16 0.00 0.00
12:55 am 00:55 Cloudy 18 -7.7 5 -15.1 56 56 NE 10 17 30.15 1021 10 16 0.00 0.00
1:15 am 01:15 Cloudy 18 -7.9 5 -14.8 58 58 NE 9 15 30.17 1022 10 16 0.00 0.00
1:35 am 01:35 Cloudy 17 -8.2 4 -15.4 57 57 NE 10 17 30.17 1022 10 16 0.00 0.00
1:55 am 01:55 Cloudy 17 -8.5 5 -15 60 60 NE 10 17 30.16 1021 10 16 0.00 0.00
2:15 am 02:15 Cloudy 17 -8.6 5 -15 60 60 ENE 10 17 30.17 1022 10 16 0.00 0.00
2:35 am 02:35 Cloudy 16 -8.9 4 -15.5 59 59 ENE 10 17 30.17 1022 10 16 0.00 0.00
2:55 am 02:55 Cloudy 16 -9.1 4 -15.8 59 59 ENE 9 15 30.18 1022 10 16 0.00 0.00
3:15 am 03:15 Cloudy 15 -9.5 3 -16 60 60 ENE 7 11 30.16 1021 10 16 0.00 0.00
3:35 am 03:35 Cloudy 15 -9.5 3 -15.9 60 60 ENE 9 15 30.16 1021 10 16 0.00 0.00
3:55 am 03:55 Cloudy 14 -9.8 3 -16.2 60 60 NE 9 15 30.17 1022 10 16 0.00 0.00
4:15 am 04:15 Cloudy 14 -10 4 -15.8 63 63 NE 7 11 30.16 1021 10 16 0.00 0.00
4:35 am 04:35 Cloudy 14 -10 2 -16.6 59 59 ENE 9 15 30.15 1021 10 16 0.00 0.00
4:55 am 04:55 Cloudy 14 -10 2 -16.6 59 59 NE 9 15 30.14 1021 10 16 0.00 0.00
5:15 am 05:15 Cloudy 14 -10.1 1 -17.1 57 57 ENE 8 13 30.15 1021 10 16 0.00 0.00
5:35 am 05:35 Cloudy 13 -10.3 2 -16.5 61 61 ENE 9 15 30.14 1021 10 16 0.00 0.00
5:55 am 05:55 Cloudy 13 -10.6 4 -15.5 68 68 E 13 20 30.14 1021 10 16 0.00 0.00
6:15 am 06:15 Cloudy with Light Snow 12 -11 5 -15.1 72 72 E 9 15 30.18 1022 3 4 0.00 0.00
6:35 am 06:35 Cloudy with Light Snow 11 -11.5 6 -14.5 79 79 ENE 6 9 30.19 1022 1 2 0.00 0.00
6:55 am 06:55 Cloudy with Snow 11 -11.5 7 -14 82 82 NE 5 7 30.20 1023 1 2 0.01 0.25
7:15 am 07:15 Cloudy with Light Snow 11 -11.6 7 -14 83 83 NE 7 11 30.20 1023 2 2 0.01 0.25
7:35 am 07:35 Cloudy with Snow 11 -11.7 7 -14 83 83 NE 8 13 30.19 1022 1 1 0.02 0.51
7:55 am 07:55 Cloudy with Snow 10 -12 7 -14.1 85 85 NE 6 9 30.21 1023 0 0 0.05 1.27
8:15 am 08:15 Cloudy with Light Snow 10 -12 7 -14.1 85 85 NNE 7 11 30.24 1024 1 2 0.00 0.00
8:35 am 08:35 Cloudy with Light Snow 10 -12 6 -14.2 84 84 NE 8 13 30.24 1024 1 2 0.01 0.25
8:55 am 08:55 Cloudy with Snow 10 -12.1 6 -14.3 84 84 NE 5 7 30.24 1024 1 1 0.01 0.25
9:15 am 09:15 Cloudy with Snow 10 -12.2 6 -14.5 83 83 NE 6 9 30.24 1024 1 1 0.00 0.00
9:35 am 09:35 Cloudy with Light Snow 10 -12 6 -14.5 82 82 ENE 5 7 30.24 1024 1 2 0.00 0.00
9:55 am 09:55 Cloudy with Light Snow 11 -11.8 6 -14.5 81 81 E 7 11 30.23 1024 3 5 0.00 0.00
10:15 am 10:15 Cloudy with Haze 11 -11.5 6 -14.5 79 79 E 7 11 30.23 1024 5 8 0.00 0.00
10:35 am 10:35 Cloudy 11 -11.4 6 -14.5 78 78 E 8 13 30.22 1023 7 11 0.01 0.25
10:55 am 10:55 Cloudy with Light Snow 12 -11 6 -14.3 77 77 E 6 9 30.23 1024 5 8 0.02 0.51
11:15 am 11:15 Cloudy 13 -10.8 6 -14.3 76 76 ENE 8 13 30.23 1024 7 11 0.01 0.25
11:35 am 11:35 Cloudy with Haze 13 -10.7 6 -14.3 75 75 E 8 13 30.23 1024 5 8 0.01 0.25
11:55 am 11:55 Cloudy 13 -10.6 6 -14.5 73 73 E 8 13 30.24 1024 7 11 0.01 0.25
12:15 pm 12:15 Cloudy with Light Snow 13 -10.6 6 -14.4 74 74 Calm 30.25 1024 4 6 0.00 0.00
12:35 pm 12:35 Cloudy with Light Snow 13 -10.4 6 -14.3 73 73 E 8 13 30.23 1024 5 8 0.00 0.00
12:55 pm 12:55 Cloudy with Light Snow 14 -10.2 7 -13.9 75 75 E 13 20 30.20 1023 4 6 0.00 0.00
1:15 pm 13:15 Cloudy with Light Snow 13 -10.3 7 -14 75 75 ESE 9 15 30.21 1023 5 8 0.00 0.00
1:35 pm 13:35 Cloudy with Light Snow 14 -10.2 7 -14 74 74 ESE 7 11 30.22 1023 7 11 0.00 0.00
1:55 pm 13:55 Cloudy with Light Snow 14 -10.1 7 -14 73 73 ESE 6 9 30.22 1023 7 11 0.00 0.00
2:15 pm 14:15 Cloudy with Light Snow 14 -10.1 7 -14 73 73 ESE 8 13 30.22 1023 7 11 0.00 0.00
2:35 pm 14:35 Cloudy with Light Snow 14 -10.1 7 -14 73 73 E 6 9 30.21 1023 5 8 0.00 0.00
2:55 pm 14:55 Cloudy 14 -10.2 7 -14.1 73 73 E 7 11 30.21 1023 10 16 0.00 0.00
3:15 pm 15:15 Cloudy 14 -10.1 7 -14.1 73 73 ESE 6 9 30.21 1023 10 16 0.00 0.00
3:35 pm 15:35 Cloudy with Light Snow 14 -10 7 -14 73 73 ESE 6 9 30.21 1023 10 16 0.00 0.00
3:55 pm 15:55 Cloudy with Light Snow 14 -10 7 -13.8 74 74 E 6 9 30.21 1023 7 11 0.00 0.00
4:15 pm 16:15 Cloudy with Light Snow 14 -10 7 -13.8 74 74 ESE 5 7 30.21 1023 10 16 0.00 0.00
4:35 pm 16:35 Cloudy 14 -10 8 -13.6 75 75 E 9 15 30.20 1023 10 16 0.00 0.00
4:55 pm 16:55 Cloudy 14 -10 8 -13.5 76 76 E 8 13 30.19 1022 10 16 0.00 0.00
5:15 pm 17:15 Cloudy 14 -10 8 -13.5 76 76 E 8 13 30.19 1022 10 16 0.00 0.00
5:35 pm 17:35 Cloudy 14 -10.2 8 -13.5 77 77 E 8 13 30.19 1022 10 16 0.00 0.00
6:15 pm 18:15 Cloudy 14 -10.2 8 -13.3 78 78 ESE 7 11 30.21 1023 10 16 0.00 0.00
6:35 pm 18:35 Cloudy 13 -10.3 8 -13.5 78 78 ESE 6 9 30.21 1023 10 16 0.00 0.00
6:55 pm 18:55 Cloudy with Light Snow 13 -10.3 8 -13.5 78 78 ESE 8 13 30.21 1023 10 16 0.00 0.00
7:15 pm 19:15 Cloudy 13 -10.4 8 -13.5 78 78 ESE 7 11 30.22 1024 10 16 0.00 0.00
7:35 pm 19:35 Cloudy 13 -10.3 8 -13.5 78 78 SE 6 9 30.23 1024 10 16 0.00 0.00
7:55 pm 19:55 Cloudy 13 -10.4 8 -13.5 78 78 SE 7 11 30.24 1024 10 16 0.00 0.00
8:15 pm 20:15 Cloudy with Light Snow 13 -10.3 8 -13.3 79 79 SE 6 9 30.23 1024 10 16 0.00 0.00
8:35 pm 20:35 Cloudy with Light Snow 13 -10.3 8 -13.1 80 80 ESE 7 11 30.23 1024 5 8 0.00 0.00
8:55 pm 20:55 Cloudy with Light Snow 13 -10.5 8 -13.2 81 81 SE 8 13 30.24 1024 5 8 0.00 0.00
9:15 pm 21:15 Cloudy with Light Snow 13 -10.5 8 -13.2 81 81 SE 7 11 30.25 1024 5 8 0.00 0.00
9:35 pm 21:35 Cloudy with Light Snow 13 -10.5 8 -13.1 81 81 SE 7 11 30.25 1024 4 6 0.00 0.00
9:55 pm 21:55 Cloudy with Light Snow 13 -10.5 9 -13 82 82 SSE 7 11 30.25 1024 5 8 0.00 0.00
10:15 pm 22:15 Cloudy with Light Snow 13 -10.5 9 -13 82 82 SSE 7 11 30.25 1024 7 11 0.00 0.00
10:35 pm 22:35 Cloudy with Light Snow 13 -10.6 9 -13 83 83 SSE 7 11 30.25 1024 10 16 0.00 0.00
10:55 pm 22:55 Cloudy with Light Snow 13 -10.6 9 -12.9 83 83 SSE 6 9 30.25 1024 7 11 0.00 0.00
11:15 pm 23:15 Cloudy with Light Snow 13 -10.6 9 -12.7 85 85 SE 7 11 30.24 1024 5 8 0.00 0.00
11:35 pm 23:35 Cloudy with Light Snow 13 -10.7 9 -12.7 85 85 SE 6 9 30.22 1023 5 8 0.00 0.00
11:55 pm 23:55 Cloudy with Light Snow 13 -10.7 9 -12.6 86 86 SSE 7 11 30.23 1024 7 11 0.00 0.00

Powered by AerisWeather